Flag for U.S.A. Weather past 2 weeks in Durham, North Carolina, U.S.A.

Now
86 °F

Broken clouds.


Feels Like: 84 °F
Forecast: 60 / 84 °F
Wind: No wind

Location: Raleigh-Durham International Airport

Current Time: Aug 28, 2015 at 4:14:32 PM

Latest Report: Aug 28, 2015 at 3:51 PM


Visibility: 10 mi

Pressure: 30.13 "Hg

Humidity: 35%

Dew point: 55 °F

Location of DurhamLocation

Historic Weather in Durham — Graph

°F

Durham temperature yesterday

Maximum temperature yesterday: 83 °F (at 2:51 PM)
Minimum temperature yesterday: 66 °F (at 11:51 PM)
Average temperature yesterday: 74 °F

Past Weeks' High & Low Weather Summary

 TemperatureHumidityPressure
High94 °F (Aug 17, 3:51 PM)97% (Aug 20, 3:51 AM)30.20 "Hg (Aug 20, 3:51 AM)
Low61 °F (Aug 23, 5:51 AM)30% (Aug 17, 3:51 PM)29.85 "Hg (Aug 24, 6:51 PM)
Average78 °F69%30.03 "Hg
* Reported Aug 13 2:51 PM — Aug 28 2:51 PM, Durham, Weather by CustomWeather, © 2015

Note: Actual official high and low records may vary slightly from our data, if they occured in-between our weather recording intervals... More about our weather records

Advertising

Durham weather history for previous 24 hours

 ConditionsComfort  
Time TempWeatherWind HumidityBarometerVisibility
2:51 PM
Fri, Aug 28
85 °FBroken clouds.6 mph39%30.15 "Hg10 mi
1:51 PM84 °FBroken clouds.7 mph38%30.16 "Hg10 mi
12:51 PM83 °FScattered clouds.8 mph43%30.19 "Hg10 mi
11:51 AM81 °FScattered clouds.8 mph45%30.20 "Hg10 mi
10:51 AM78 °FScattered clouds.12 mph52%30.20 "Hg10 mi
9:51 AM75 °FScattered clouds.6 mph62%30.19 "Hg10 mi
8:51 AM70 °FPassing clouds.3 mph76%30.18 "Hg10 mi
7:51 AM65 °FPassing clouds.3 mph91%30.17 "Hg8 mi
6:51 AM61 °FFog.No wind93%30.15 "Hg6 mi
5:51 AM62 °FPassing clouds.No wind93%30.13 "Hg7 mi
4:51 AM62 °FPassing clouds.5 mph93%30.12 "Hg8 mi
3:51 AM62 °FPassing clouds.No wind93%30.11 "Hg8 mi
2:51 AM63 °FPassing clouds.No wind90%30.11 "Hg8 mi
1:51 AM65 °FPassing clouds.No wind85%30.12 "Hg10 mi
12:51 AM67 °FPassing clouds.No wind79%30.12 "Hg10 mi
11:51 PM
Thu, Aug 27
66 °FPassing clouds.No wind81%30.12 "Hg10 mi
10:51 PM68 °FPassing clouds.3 mph76%30.12 "Hg10 mi
9:51 PM71 °FPassing clouds.5 mph66%30.10 "Hg10 mi
8:51 PM74 °FPartly cloudy.5 mph60%30.08 "Hg10 mi
7:51 PM76 °FScattered clouds.5 mph58%30.06 "Hg10 mi
6:51 PM80 °FBroken clouds.8 mph51%30.06 "Hg10 mi
5:51 PM82 °FBroken clouds.9 mph49%30.04 "Hg10 mi
4:51 PM81 °FBroken clouds.9 mph49%30.04 "Hg10 mi
Weather by CustomWeather, © 2015

See weather overviewHow to use our weather pages